Date String (YYYY-MM-DD hh:mm:ss) UTC,Instrument flags,absolute air pressure of the measurement (hPa),sample flow rate (lpm),inlet stack bypass flow (lpm),air temperature of the measurement (°C),ambient temperature measured by the external sensor (°C),aerosol sample conditioner tube jacket temperature (°C),OPC LED temperature (°C),internal box temperature (°C),relative humidity of the measurement (%),span deviation,mass concentration of particles derived from Lorenz-Mie calculation of OPC scattering (μg/m³),mass concentration of particles derived from Lorenz-Mie calculation of OPC scattering (μg/m³),mass concentration of particles derived from Lorenz-Mie calculation of OPC scattering (μg/m³)
DateTimeUTC,F1_M11,P_M11,Q1_M11,Q2_M11,T1_M11,T2_M11,T3_M11,T4_M11,T5_M11,U1_M11,ZSPAN_M11,X0_M11,X2_M11,X1_M11
2023-06-24 16:00:00,SystemResetWarning,0830.0,5.00,000.00,029.5,028.0,000.0,038.0,031.1,11.1,0000.0,0011.60,0005.06,0003.95
2023-06-24 16:01:00,SystemResetWarning,0830.0,5.00,000.00,029.6,028.1,000.0,038.0,031.1,11.7,0000.0,0012.63,0005.07,0003.96
2023-06-24 16:02:00,SystemResetWarning,0830.0,5.01,000.00,029.6,028.2,000.0,038.1,031.2,13.0,0000.8,0012.65,0005.05,0003.96
2023-06-24 16:03:00,SystemResetWarning,0830.0,4.99,000.00,029.6,027.7,000.0,038.0,031.3,12.3,0003.2,0012.53,0005.01,0003.95
2023-06-24 16:04:00,SystemResetWarning,0829.9,4.99,000.00,029.6,025.6,000.0,038.0,031.2,12.1,0000.0,0012.75,0005.02,0003.95
2023-06-24 16:05:00,SystemResetWarning,0829.9,5.01,000.00,029.6,024.8,000.0,037.9,031.2,10.4,0001.1,0012.78,0004.96,0003.94
2023-06-24 16:06:00,SystemResetWarning,0829.9,5.01,000.00,029.5,025.2,000.0,037.9,030.9,10.8,0003.9,0012.59,0004.90,0003.94
2023-06-24 16:07:00,SystemResetWarning,0829.9,5.00,000.00,029.4,025.6,000.0,037.9,030.7,10.8,0003.5,0012.57,0004.86,0003.93
2023-06-24 16:08:00,SystemResetWarning,0829.9,5.00,000.00,029.4,026.0,000.0,037.9,030.7,11.4,0001.4,0012.57,0004.86,0003.94
2023-06-24 16:09:00,SystemResetWarning,0829.9,5.00,000.00,029.4,026.4,000.0,037.9,030.8,11.8,0000.6,0012.74,0004.84,0003.95
2023-06-24 16:10:00,SystemResetWarning,0829.9,4.99,000.00,029.4,026.7,000.0,037.9,030.8,11.9,0000.0,0012.33,0004.86,0003.95
2023-06-24 16:11:00,SystemResetWarning,0829.9,5.00,000.00,029.4,027.0,000.0,037.9,030.8,12.5,0000.0,0012.18,0004.86,0003.95
2023-06-24 16:12:00,SystemResetWarning,0829.9,5.00,000.00,029.4,027.3,000.0,037.9,030.9,12.2,0000.0,0011.04,0004.84,0003.95
2023-06-24 16:13:00,SystemResetWarning,0829.9,4.99,000.00,029.4,027.5,000.0,038.0,030.9,12.6,0000.0,0010.70,0004.85,0003.95
2023-06-24 16:14:00,SystemResetWarning,0829.9,4.99,000.00,029.4,027.7,000.0,038.0,030.9,12.6,0000.0,0011.64,0004.91,0003.97
2023-06-24 16:15:00,SystemResetWarning,0830.0,5.00,000.00,029.5,027.8,000.0,038.0,031.0,10.5,0000.0,0012.01,0004.95,0003.98
2023-06-24 16:16:00,SystemResetWarning,0830.0,5.00,000.00,029.5,027.9,000.0,038.0,031.0,11.7,0000.0,0012.03,0004.93,0003.98
2023-06-24 16:17:00,SystemResetWarning,0830.0,5.00,000.00,029.5,027.9,000.0,038.0,031.1,12.0,0000.0,0012.31,0004.95,0003.98
2023-06-24 16:18:00,SystemResetWarning,0830.0,4.98,000.00,029.6,026.4,000.0,037.9,031.2,12.5,0000.0,0012.84,0004.92,0003.98
2023-06-24 16:19:00,SystemResetWarning,0830.0,5.00,000.00,029.5,024.7,000.0,037.9,031.1,12.8,0000.0,0013.15,0004.92,0003.98
2023-06-24 16:20:00,SystemResetWarning,0830.0,5.01,000.00,029.5,025.0,000.0,037.8,031.0,14.4,0000.0,0012.74,0004.90,0003.98
2023-06-24 16:21:00,SystemResetWarning,0830.0,5.01,000.00,029.4,025.4,000.0,037.8,030.7,13.6,0000.0,0012.61,0004.88,0003.98
2023-06-24 16:22:00,SystemResetWarning,0830.0,4.99,000.00,029.3,025.8,000.0,037.9,030.7,12.3,0000.0,0012.82,0004.91,0003.98
2023-06-24 16:23:00,SystemResetWarning,0830.0,5.00,000.00,029.3,026.2,000.0,037.9,030.7,12.4,0000.0,0013.24,0004.99,0003.99
2023-06-24 16:24:00,SystemResetWarning,0830.0,5.01,000.00,029.3,026.6,000.0,037.9,030.8,11.7,0000.0,0013.26,0005.00,0004.00
2023-06-24 16:25:00,SystemResetWarning,0830.0,5.00,000.00,029.3,026.9,000.0,037.9,030.8,12.0,0000.0,0012.09,0004.95,0004.00
2023-06-24 16:26:00,SystemResetWarning,0830.0,4.99,000.00,029.4,027.2,000.0,037.9,030.9,13.2,0000.0,0011.73,0004.97,0004.01
2023-06-24 16:27:00,SystemResetWarning,0830.0,5.00,000.00,029.4,027.4,000.0,037.9,030.9,13.1,0000.0,0011.85,0005.00,0004.02
2023-06-24 16:28:00,SystemResetWarning,0830.0,5.01,000.00,029.4,027.6,000.0,037.9,030.9,10.6,0000.0,0011.91,0005.02,0004.02
2023-06-24 16:29:00,SystemResetWarning,0830.0,5.01,000.00,029.4,027.8,000.0,037.9,031.0,11.1,0000.0,0011.55,0005.06,0004.03
2023-06-24 16:30:00,SystemResetWarning,0830.0,5.00,000.00,029.5,027.9,000.0,037.9,031.0,12.8,0000.0,0011.09,0005.02,0004.03
2023-06-24 16:31:00,SystemResetWarning,0830.0,4.98,000.00,029.5,027.8,000.0,037.9,031.1,11.8,0000.0,0011.35,0004.99,0004.01
2023-06-24 16:32:00,SystemResetWarning,0830.0,5.00,000.00,029.5,026.1,000.0,037.9,031.2,10.3,0000.0,0011.62,0005.01,0004.00
2023-06-24 16:33:00,SystemResetWarning,0830.0,5.00,000.00,029.5,024.7,000.0,037.8,031.0,10.8,0000.0,0011.33,0004.98,0004.01
2023-06-24 16:34:00,SystemResetWarning,0830.0,5.01,000.00,029.5,025.1,000.0,037.8,030.9,11.0,0000.0,0011.17,0004.96,0004.01
2023-06-24 16:35:00,SystemResetWarning,0830.0,5.00,000.00,029.4,025.4,000.0,037.8,030.7,10.4,0000.0,0011.25,0004.98,0004.01
2023-06-24 16:36:00,SystemResetWarning,0830.0,5.00,000.00,029.3,025.9,000.0,037.8,030.6,10.9,0000.0,0011.35,0004.98,0004.01
2023-06-24 16:37:00,SystemResetWarning,0830.0,5.00,000.00,029.3,026.3,000.0,037.8,030.7,10.2,0000.0,0011.61,0004.94,0003.99
2023-06-24 16:38:00,SystemResetWarning,0830.0,5.00,000.00,029.3,026.6,000.0,037.8,030.7,10.8,0000.0,0011.55,0004.92,0003.99
2023-06-24 16:39:00,SystemResetWarning,0830.1,5.00,000.00,029.3,026.9,000.0,037.8,030.7,12.9,0000.0,0011.05,0004.90,0004.00
2023-06-24 16:40:00,SystemResetWarning,0830.1,5.00,000.00,029.3,027.2,000.0,037.8,030.8,11.4,0000.0,0010.67,0004.84,0004.01
2023-06-24 16:41:00,SystemResetWarning,0830.1,5.01,000.00,029.3,027.4,000.0,037.8,030.9,11.5,0000.0,0010.62,0004.89,0004.02
2023-06-24 16:42:00,SystemResetWarning,0830.1,5.00,000.00,029.4,027.6,000.0,037.8,030.9,12.1,0000.0,0010.28,0004.93,0004.04
2023-06-24 16:43:00,SystemResetWarning,0830.1,4.99,000.00,029.4,027.8,000.0,037.9,030.9,10.5,0000.0,0009.88,0004.92,0004.06
2023-06-24 16:44:00,SystemResetWarning,0830.1,4.99,000.00,029.4,027.9,000.0,037.9,031.0,9.9,0000.0,0010.19,0004.97,0004.07
2023-06-24 16:45:00,SystemResetWarning,0830.0,4.99,000.00,029.4,026.8,000.0,037.8,031.1,10.7,0000.0,0010.29,0004.98,0004.08
2023-06-24 16:46:00,SystemResetWarning,0830.0,5.00,000.00,029.4,024.8,000.0,037.8,031.0,10.4,0000.0,0010.49,0004.93,0004.08
2023-06-24 16:47:00,SystemResetWarning,0830.1,5.01,000.00,029.4,024.8,000.0,037.7,031.0,12.6,0000.0,0011.28,0004.96,0004.09
2023-06-24 16:48:00,SystemResetWarning,0830.1,5.02,000.00,029.3,025.3,000.0,037.7,030.7,13.9,0000.0,0011.17,0004.96,0004.10
2023-06-24 16:49:00,SystemResetWarning,0830.2,4.99,000.00,029.3,025.7,000.0,037.7,030.6,11.8,0000.0,0010.52,0004.94,0004.12
2023-06-24 16:50:00,SystemResetWarning,0830.1,4.99,000.00,029.3,026.1,000.0,037.8,030.6,11.7,0000.0,0010.67,0004.98,0004.13
2023-06-24 16:51:00,SystemResetWarning,0830.0,5.00,000.00,029.2,026.5,000.0,037.8,030.6,11.3,0000.0,0010.83,0005.03,0004.13
2023-06-24 16:52:00,SystemResetWarning,0830.1,5.00,000.00,029.2,026.8,000.0,037.8,030.7,13.1,0000.0,0011.10,0005.07,0004.13
2023-06-24 16:53:00,SystemResetWarning,0830.2,5.01,000.00,029.3,027.1,000.0,037.8,030.7,11.9,0000.0,0011.58,0005.05,0004.13
2023-06-24 16:54:00,SystemResetWarning,0830.1,5.00,000.00,029.3,027.3,000.0,037.8,030.8,13.1,0000.0,0011.71,0005.08,0004.14
2023-06-24 16:55:00,SystemResetWarning,0830.1,5.00,000.00,029.3,027.5,000.0,037.8,030.8,12.6,0000.0,0011.88,0005.11,0004.13
2023-06-24 16:56:00,SystemResetWarning,0830.0,4.99,000.00,029.3,027.7,000.0,037.8,030.9,12.4,0000.0,0012.27,0005.13,0004.13
2023-06-24 16:57:00,SystemResetWarning,0830.1,5.00,000.00,029.4,027.8,000.0,037.8,031.0,11.3,0000.0,0012.66,0005.18,0004.14
2023-06-24 16:58:00,SystemResetWarning,0830.1,4.99,000.00,029.4,027.2,000.0,037.8,031.1,11.4,0000.0,0012.32,0005.17,0004.14
2023-06-24 16:59:00,SystemResetWarning,0830.1,5.00,000.00,029.4,025.1,000.0,037.7,031.0,11.8,0000.0,0012.22,0005.21,0004.14
